Regional Weather Roundup
Issued by NWS

Home | Current Version | Previous Version | Text Only | Print | Product List | Glossary Off
Versions: 1 2 3 4 5 6 7 8 9 10 11 12 13 14 15 16 17 18 19 20 21 22 23 24 25 26 27 28 29 30 31 32 33 34 35 36 37 38 39 40 41 42 43 44 45 46 47 48 49 50

670
ASUS44 KMEG 250410
RWRTN
TENNESSEE HOURLY STATE WEATHER ROUNDUP
NATIONAL WEATHER SERVICE MEMPHIS TN
1100 PM CDT SUN SEP 24 2017

TNZ002-004-019-021-049-052-054-088>092-250500-
WEST TENNESSEE

CITY           SKY/WX    TMP DP  RH WIND       PRES   REMARKS
MEMPHIS INTL   PTCLDY    76  68  76 E7        29.97F
NWS MEMPHIS      N/A     71 N/A N/A MISG        N/A
JACKSON        CLEAR     69  69 100 CALM      30.00S
DYERSBURG      CLEAR     70  69  97 CALM      30.00S
SOMERVILLE     CLEAR     70  68  94 CALM      29.98S
COVINGTON      CLEAR     68  68 100 CALM      29.99S
BOLIVAR        CLEAR     68  66  94 CALM      29.99S FOG
PARIS          CLEAR     70  66  88 CALM      29.99F
HUNTINGDON     CLEAR     70  68  94 CALM      29.99F
LEXINGTON      CLEAR     68  68 100 CALM      30.00S FOG
SELMER         CLEAR     68  66  94 CALM      30.00S
SAVANNAH       CLEAR     68  68 100 CALM      29.99S
$$

TNZ008-025-027-028-033-062-065-066-250500-
NORTH MIDDLE TENNESSEE

CITY           SKY/WX    TMP DP  RH WIND       PRES   REMARKS
NASHVILLE      MOCLDY    73  67  81 CALM      30.02F
PORTLAND       CLEAR     70  70 100 CALM      30.02F
CLARKSVILLE    CLOUDY    70  67  90 CALM      30.01F
SMYRNA           N/A    N/A N/A N/A MISG        N/A
COOKEVILLE     CLEAR     63  63 100 CALM      30.04S FOG
GALLATIN       CLEAR     72  68  88 CALM      30.04S
CROSSVILLE     CLEAR     64  62  93 CALM      30.09S
$$

TNZ061-075-076-078-094-096-097-250500-
SOUTH MIDDLE TENNESSEE

CITY           SKY/WX    TMP DP  RH WIND       PRES   REMARKS
FAYETTEVILLE   CLEAR     70  66  88 CALM      30.02F
TULLAHOMA      CLEAR     66  63  88 CALM      30.05F
WINCHESTER     CLEAR     64  64 100 CALM      30.04F
MCMINNVILLE    MOCLDY    66  66 100 CALM      30.05S VSB 3/4
COLUMBIA       CLEAR     68 N/A N/A CALM      30.00S
SHELBYVILLE    CLEAR     68  66  94 E5        30.02F
$$

TNZ017-018-042-046-047-250500-
NORTHEAST TENNESSEE

CITY           SKY/WX    TMP DP  RH WIND       PRES   REMARKS
TRI CITIES     PTCLDY    63  60  90 N3        30.09S
ELIZABETHTON   PTCLDY    66  57  72 VRB5      30.10S
$$

TNZ012-013-036-069-073-074-250500-
CENTRAL EAST TENNESSEE

CITY           SKY/WX    TMP DP  RH WIND       PRES   REMARKS
KNOXVILLE      PTCLDY    71  63  75 CALM      30.02F
OAK RIDGE      CLEAR     69  65  86 CALM      30.04F
DOWNTOWN KNOXV   N/A     68  66  94 CALM      30.02S
GATLINBURG     CLEAR     66  61  82 CALM      30.03F
MORRISTOWN     CLEAR     70  61  73 CALM      30.04S
JACKSBORO      CLEAR     66  64  94 CALM      30.09S
$$

TNZ083-085-099-250500-
SOUTHEAST TENNESSEE

CITY           SKY/WX    TMP DP  RH WIND       PRES   REMARKS
CHATTANOOGA    PTCLDY    71  67  87 CALM      30.02S
DAYTON         PTCLDY    68  68 100 CALM      30.02S
$$

SKY/WX REPORTED AS FAIR MEANS FEW OR NO CLOUDS BELOW
12 THOUSAND FEET.





USA.gov is the U.S. government's official web portal to all federal, state and local government web resources and services.